www.pogodaiklimat.ru

Погода и климат >> Архив погоды >> Россия >> Нижегородская область >> Лысково


ПОГОДА в Лысково

  • Прогноз погоды в Лысково
  • Монитор погоды в Лысково
  • Климат города

АРХИВ ПОГОДЫ в Лысково

Время (UTC), дата Ветер
(напр.,м/с)
 
Видим.   Явления Облачность Т
(С)
Тd
(С)
f
(%)
Тe
(С)
Тes
(С)
Комфортность P
(гПа)
Po
(гПа)
Тmin
(С)
Tmax
(С)
R
(мм)
R24
(мм)
S
(см)
06 14.02 штиль 0
{1}
20 км ясно -18.9 -20.8 85 -19 -18 1034.9 1017.8 -21.9
09 14.02 СЗ 1-1
{1}
20 км ясно -12.2 -15.7 75 -14 -11 1035.2 1018.6
12 14.02 СВ 1-2
{3}
20 км ясно -7.3 -11.6 71 -9 -8 1035.4 1019.0
15 14.02 В 2-3
{3}
20 км ясно -10.4 -14.0 75 -15 -15 1036.3 1019.8 -6.7
18 14.02 В 1-1
{3}
20 км ясно -16.6 -19.2 80 -19 -19 1037.0 1020.1
21 14.02 В 1-1
{2}
20 км ясно -17.2 -19.8 80 -20 -20 1037.7 1020.7
00 15.02 штиль 0
{1}
20 км ясно -18.4 -21.0 80 -18 -18 1038.5 1021.5
03 15.02 штиль 0 20 км ясно -20.8 -23.3 80 -21 -21 1039.2 1022.0 -21.1 12
06 15.02 штиль 0
{1}
10 км ясно -18.2 -19.4 90 -18 -17 1040.0 1022.9
09 15.02 штиль 0
{1}
20 км ясно -10.3 -14.7 70 -11 -6 1040.5 1023.9
12 15.02 ЮВ 1-2
{3}
20 км ясно -6.9 -12.6 64 -9 -8 1040.5 1024.1
15 15.02 В 1-1
{3}
20 км ясно -12.8 -16.3 75 -15 -15 1040.9 1024.1 -6.4
18 15.02 ЮВ 1-2
{4}
20 км ясно -13.9 -15.9 85 -16 -16 1041.0 1024.1
21 15.02 ЮВ 1-1
{3}
20 км ясно -16.1 -17.4 90 -19 -19 1041.1 1024.1
00 16.02 ЮВ 1-2
{3}
20 км ясно -13.8 -15.8 85 -16 -16 1040.9 1024.0
03 16.02 ЮВ 1-2
{3}
20 км 10/10 600 м
[Sc]
-13.9 -15.2 90 -16 -16 1040.4 1023.5 -17.4 12
06 16.02 ЮВ 2-4
{5}
10 км 10/10 600 м
[Sc]
-11.0 -13.0 85 -16 -16 1039.9 1023.3
09 16.02 Ю 3-4
{5}
10 км 9/6 600 м
[Sc Ac As]
-7.2 -12.5 66 -13 -12 1039.6 1023.2
12 16.02 Ю 3-6
{6}
10 км 9/9 600 м
[Sc]
-4.3 -10.7 61 -9 -9 1038.7 1022.5
15 16.02 ЮВ 3-6
{7}
10 км слабый снег 10/10 600 м
[Sc]
-5.0 -10.4 66 -10 -10 1038.0 1021.8 -4.2 0.0
18 16.02 Ю 4-7
{7}
10 км слабый снег 10/10 600 м
[Sc]
-4.9 -9.8 68 -11 -11 1037.4 1021.2
21 16.02 Ю 2-5
{7}
10 км {снег} 10/10 600 м
[Sc]
-5.5 -9.7 72 -10 -10 1036.9 1020.7
00 17.02 Ю 2-4
{6}
10 км {снег} 10/10 600 м
[Sc]
-5.7 -10.4 69 -10 -10 1036.6 1020.4
03 17.02 ЮВ 1-3
{6}
10 км 9/9 600 м
[Sc]
-6.0 -10.4 71 -8 -8 1035.9 1019.6 -6.0 0.0 12
06 17.02 Ю 3-6
{7}
20 км 1/1 600 м
[Sc]
-6.6 -12.2 64 -12 -11 1035.3 1019.0 -7.1
09 17.02 Ю 2-5
{7}
20 км 1/1 600 м
[Sc]
-4.1 -10.0 63 -8 -5 1034.2 1018.1
12 17.02 ЮВ 3-6
{6}
20 км 10/1 600 м
[Sc Ac trans Ci]
-4.8 -11.5 59 -10 -9 1033.0 1016.9
15 17.02 ЮВ 2-4
{6}
10 км слабый снег 10/8 600 м
[Sc Ac lent]
-5.3 -9.4 73 -9 -9 1032.3 1016.1 -3.4 0.0
18 17.02 ЮВ 2-4
{6}
10 км слабый снег 10/10 600 м
[Sc]
-5.7 -10.0 72 -10 -10 1031.5 1015.3
21 17.02 ЮВ 3-5
{7}
10 км слабый снег 10/10 600 м
[Sc]
-5.5 -9.3 75 -11 -11 1030.2 1014.0
00 18.02 ЮВ 3-5
{7}
20 км {снег} 10/0
[Ac und]
-5.4 -10.5 67 -11 -11 1029.4 1013.2
03 18.02 ЮВ 2-4
{7}
20 км 10/0
[Ac und]
-7.3 -11.6 71 -12 -12 1028.5 1012.3 -7.4 0.0 12
06 18.02 ЮВ 3-6
{7}
10 км слабый снег 10/8 300 м
[Frnb Ac As]
-7.4 -11.8 71 -13 -13 1027.5 1011.3 -7.7
09 18.02 ЮВ 3-6
{7}
10 км слабый снег 10/10 300 м
[Frnb]
-4.8 -9.7 69 -10 -10 1026.7 1010.7
12 18.02 В 2-4
{9}
10 км слабый снег {метель} 10/10 600 м
[Sc]
-5.8 -9.7 74 -10 -10 1025.8 1009.7
15 18.02 ЮВ 3-6
{7}
10 км слабый снег 10/10 300 м
[Frnb]
-6.6 -9.4 80 -12 -12 1024.1 1008.0 -4.7 0.2
18 18.02 В 3-6
{8}
4000 м слабый снег {метель} 10/10 300 м
[Frnb]
-6.7 -9.5 80 -12 -12 1022.9 1006.9
21 18.02 ЮВ 3-5
{7}
4000 м слабый снег 10/10 300 м
[Frnb]
-7.6 -9.8 84 -13 -13 1021.3 1005.2
00 19.02 ЮВ 2-4
{5}
10 км слабый снег 10/10 600 м
[Sc]
-8.0 -9.8 87 -12 -12 1020.3 1004.2
03 19.02 Ю 2-4
{5}
10 км слабый снег 10/10 600 м
[Sc]
-9.1 -10.6 89 -14 -14 1019.5 1003.3 -9.3 0.8 14
06 19.02 Ю 3-4
{4}
20 км {снег} 1/1 600 м
[Sc]
-10.3 -12.3 85 -16 -15 1019.5 1003.2 -10.9
09 19.02 Ю 2-4
{4}
10 км слабый снег 10/0
[Ac As]
-7.8 -10.5 81 -12 -11 1019.6 1003.5
12 19.02 Ю 2-4
{4}
20 км {снег} 9/8 600 м
[Sc Ac trans]
-5.3 -9.9 70 -9 -9 1019.0 1003.0
15 19.02 ЮВ 1-3
{4}
10 км слабый снег 9/8 600 м
[Sc Ac As]
-7.9 -10.6 81 -10 -10 1018.9 1002.8 -5.1 0.2
18 19.02 Ю 1-2
{4}
10 км слабый снег 10/6 600 м
[Sc Ac As]
-7.0 -9.1 85 -9 -9 1017.9 1001.9
21 19.02 ЮВ 1-2
{2}
10 км слабый снег 10/10 600 м
[Sc]
-6.5 -8.1 88 -9 -9 1016.7 1000.8
00 20.02 В 1-1
{2}
4000 м слабый снег 10/10 300 м
[Frnb]
-7.1 -8.8 88 -10 -10 1016.1 1000.1
03 20.02 штиль 0
{1}
4000 м слабый снег 10/10 200 м
[Frnb Ns]
-7.1 -8.8 88 -8 -8 1015.1 999.1 -7.9 0.8 16
06 20.02 Ю 1-1
{1}
4000 м слабый снег 10/9 300 м
[Frnb As trans]
-7.9 -9.3 90 -10 -10 1015.1 999.0
09 20.02 ЮЗ 2-3
{3}
10 км {снег} 9/5 600 м
[Sc Cc]
-3.6 -7.2 76 -8 -6 1014.8 999.0
12 20.02 З 2-4
{4}
10 км {снег} 9/9 300 м
[Cb cap]
-3.3 -7.6 72 -7 -7 1014.5 998.7
15 20.02 ЮЗ 2-2
{5}
10 км {ливн. осадки} 9/0
[Ci fib]
-8.1 -9.5 90 -13 -13 1015.3 999.2 -2.3 0.6
18 20.02 ЮЗ 2-2
{3}
10 км {ливн. осадки, снег} 9/0
[Ci fib]
-10.1 -10.7 95 -15 -15 1015.9 999.7
21 20.02 ЮЗ 2-4
{4}
10 км ясно -10.8 -11.4 95 -15 -15 1015.9 999.7
00 21.02 З 2-4
{5}
10 км слабый снег 10/10 300 м
[Frnb]
-9.1 -10.6 89 -14 -14 1016.2 1000.1
03 21.02 ЮЗ 3-4
{5}
4000 м слабый снег 10/10 300 м
[Frnb]
-10.4 -11.7 90 -16 -16 1016.4 1000.2 -11.4 0.3 16

 

Местоположение метеостанции Лысково (Нижегородская область, Россия): широта 56.01 долгота 45.03 высота над уровнем моря 124 м.

В архиве по умолчанию представлена погода в Лысково за последнюю неделю. Архивные данные за месяц целиком и за предыдущие месяцы, начиная с января 2011 года, Вы можете получить, выбрав интересующий диапазон дат из раскрывающегося списка и нажав кнопку "Ввод!".

Внимание! Время в таблицах - всемирное. Для получения местного времени необходимо прибавить поправку, которая в Лысково равна 3 ч.

Смотрите также архив погоды в соседних городах и на ближайших метеорологических станциях:

Погода в Сергаче (Нижегородская область, Россия) (61 км)
Погода в Дальнем Константиново (Нижегородская область, Россия) (64 км)
Погода в Нижнем Новгороде (Нижегородская область, Россия) (70 км)
Погода в Нижнем Новгороде аэропорт (Нижегородская область, Россия) (82 км)
Погода в Семенове (Нижегородская область, Россия) (86 км)
Погода в Воскресенском (Нижегородская область, Россия) (92 км)
Погода в Козьмодемьянске (Марий-Эл, Россия) (102 км)
Погода в Арзамасе (Нижегородская область, Россия) (106 км)
Погода в Большом Болдино (Нижегородская область, Россия) (112 км)
Погода в Лукоянове (Нижегородская область, Россия) (114 км)

Пояснения к столбцам:

Ветер - указаны скорость ветра в м/с - средняя за 10 мин, порывы в срок и между сроками (в фигурных скобках) и направление, откуда дует ветер: С - северный, СВ - северо-восточный, В - восточный, ЮВ - юго-восточный, Ю - южный, ЮЗ - юго-западный, З - западный, СЗ - северо-западный.
Видимость - горизонтальная дальность видимости в метрах или километрах. При видимости от 1 до 10 км при отсутствии осадков обычно наблюдается дымка, при ухудшении видимости до 1 км и менее - туман. В сухую погоду видимость может ухудшаться дымом, пылью или мглою.
Явления - указаны атмосферные явления, наблюдавшиеся в срок или в последний час перед сроком; фигурными скобками обозначены явления, наблюдавшиеся между сроками (за 1-3 часа до срока); квадратными скобками обозначены град или гололедные отложения с указанием их диаметра в мм.
Облачность - указаны через наклонную черту общая и нижняя облачность в баллах и высота нижней границы облаков в метрах; квадратными скобками обозначены формы облаков: Ci - перистые, Cs - перисто-слоистые, Cc - перисто-кучевые, Ac - высококучевые, As - высокослоистые, Sc - слоисто-кучевые, Ns - слоисто-дождевые, Cu - кучевые, Cb - кучево-дождевые. Подробнее классификацию облаков см. в Атласе облаков (PDF).
T - Температура воздуха - температура, измеренная на высоте 2 м над землей.
Td - Температура точки росы - температура, при понижении до которой содержащийся в воздухе водяной пар достигнет насыщения.
f - Относительная влажность воздуха - влажноcть воздуха, измеренная на высоте 2 м над землей.
Te - Эффективная температура - температура, которую ощущает одетый по сезону человек в тени. Характеристика душности погоды. При расчете учитывается влияние влажности воздуха и скорости ветра на теплоощущения человека.
Tes - Эффективная температура на солнце - температура, которую ощущает человек, с поправкой на солнечный нагрев. Характеристика знойности погоды. Зависит от высоты солнца над горизонтом, облачности и скорости ветра. Ночью, в пасмурную погоду, а также при ветре 12 м/с и более поправка равна нулю.
P - Атмосферное давление - приведенное к уровню моря атмосферное давление.
Po - Атмосферное давление - измеренное на уровне метеостанции атмосферное давление.
Tmin - Минимальная температура - минимум температуры воздуха на высоте 2 м над землей.
Tmax - Максимальная температура - максимум температуры воздуха на высоте 2 м над землей.
R - Количество осадков - Количество выпавших осадков за период времени, мм. При наведении курсора мыши на число - период времени, за который выпало указанное количество осадков.
R24 - Количество осадков - Количество выпавших осадков за 24 часа, мм.
S - Снежный покров - Высота снежного покрова, см. При наведении курсора мыши на число - состояние снежного покрова и степень покрытия местности в баллах.